Regional Weather Roundup
Issued by NWS

Home | Current Version | Previous Version | Text Only | Print | Product List | Glossary On
Versions: 1 2 3 4 5 6 7 8 9 10 11 12 13 14 15 16 17 18 19 20 21 22 23 24 25 26 27 28 29 30 31 32 33 34 35 36 37 38 39 40 41 42 43 44 45 46 47 48 49 50
000
ASUS45 KCYS 110910
RWRWY

WYOMING REGIONAL WEATHER ROUNDUP
NATIONAL WEATHER SERVICE CHEYENNE WY
200 AM MST THU FEB 11 2016

NOTE:  "FAIR" INDICATES FEW OR NO CLOUDS BELOW 12,000 FEET
WITH NO SIGNIFICANT WEATHER AND/OR OBSTRUCTIONS TO VISIBILITY.

WYZ001-111000-
YELLOWSTONE NATIONAL PARK

CITY           SKY/WX    TMP DP  RH WIND       PRES   REMARKS
LK YELLOWSTONE   N/A     23  18  81 CALM      30.34S
W YELLOWSTONE  NOT AVBL

$$
WYZ002>013-054>058-071-098>099-111000-
NORTHERN WYOMING

CITY           SKY/WX    TMP DP  RH WIND       PRES   REMARKS
JACKSON        FAIR       9   7  92 N8        30.35S WCI  -4
CODY           FAIR      48  16  27 E3        30.09F
GREYBULL       CLOUDY    30  25  81 N5        30.10F WCI  25
WORLAND        FAIR      32  26  78 S9        30.10F WCI  24
SHERIDAN       FAIR      36  26  67 SW3       30.01F
BUFFALO        FAIR      42  22  44 SW3       30.04F
GILLETTE       FAIR      42  24  49 SW18      30.02F
HULETT         FAIR      32  27  80 SW6       30.02F WCI  26
NEWCASTLE      FAIR      25  21  86 CALM      30.07F

$$
WYZ014>020-022>026-101>103-111000-
CENTRAL WYOMING

CITY           SKY/WX    TMP DP  RH WIND       PRES   REMARKS
BIG PINEY      FAIR      16  12  84 NW3       30.33S
PINEDALE         N/A     14  12  92 NW5       30.35S WCI   6
DUBOIS         FAIR      34  12  40 NW30      30.20F WCI  20
LANDER         FAIR      34  17  50 NW6       30.15F WCI  29
RIVERTON       FAIR      30  19  63 CALM      30.16F
CASPER         FAIR      36  20  52 S13       30.14F WCI  27
DOUGLAS        FAIR      27  22  81 W3          N/A

$$
WYZ021-027>030-104>119-111000-
SOUTHERN WYOMING

CITY           SKY/WX    TMP DP  RH WIND       PRES   REMARKS
EVANSTON       FAIR      28  12  51 S8        30.38S WCI  20
KEMMERER       FAIR      30  14  51 W5        30.36S WCI  25
FORT BRIDGER   SUNNY     36  16  44 W23       30.37F WCI  24
ROCK SPRINGS   FAIR      33  16  49 SW22      30.31F WCI  21
DIXON          FAIR      12   6  78 CALM      30.37F
RAWLINS        FAIR      32  17  54 W16       30.26S WCI  21
SARATOGA       FAIR      25  14  63 SE8       30.30S WCI  16
LARAMIE        FAIR      29  15  56 SW8       30.22F WCI  21
CHEYENNE       FAIR      36  16  44 W9        30.16F WCI  29
TORRINGTON     FAIR      35  23  61 NW6       30.11F WCI  30
PINE BLUFFS    FAIR      30  21  69 CALM      30.16S

$$



USA.gov is the U.S. government's official web portal to all federal, state and local government web resources and services.